Probability
10 6 13 6 10 6 3 0 0 0 0 0 0 0 0 0 0 0 0 0 0 0 0 0 0 0 3 0 0 0 0 0 0 0 0 0 0 0 0 0 0 0 0
10 3 3 3 3 6 3 0 0 0 0 0 0 0 0 0 0 0 0 0 0 0 0 0 0 0 0 3 0 0 0 0 0 0 0 0 0 0 0 0 0 0 0
3 3 3 3 3 3 3 0 0 0 0 0 0 0 0 0 0 0 0 0 0 0 0 0 0 0 0 0 3 0 0 0 0 0 0 0 0 0 0 0 0 0 0
0 0 0 0 0 3 3 0 0 0 0 0 0 0 0 0 0 0 0 0 0 0 0 0 0 0 0 0 0 0 3 3 0 0 0 0 0 0 0 0 0 0 0
0 0 0 0 0 0 0 0 0 0 0 0 0 0 0 0 0 0 0 0 0 0 0 0 0 0 0 0 0 0 0 0 0 0 0 0 0 0 0 0 0 0 0
0 0 0 0 0 0 0 0 0 0 0 0 0 0 0 0 0 0 0 0 0 0 0 0 0 0 0 0 0 0 0 0 3 0 0 0 0 0 0 0 0 0 0
0 0 0 0 0 0 0 0 0 0 0 0 0 0 0 0 0 0 0 0 0 0 0 0 0 0 0 0 0 0 0 0 0 3 0 0 0 0 0 0 0 0 0
0 0 0 0 0 0 0 0 0 0 0 0 0 0 0 0 0 0 0 0 0 0 0 0 0 0 0 0 0 0 0 0 0 0 0 0 0 0 0 0 0 0 0
0 0 0 0 0 0 0 0 0 0 0 0 0 0 0 0 0 0 0 0 0 0 0 0 0 0 0 0 0 0 0 0 0 0 0 0 0 0 0 0 0 0 0
0 0 0 0 0 0 0 0 0 0 0 0 0 0 0 0 0 0 0 0 0 0 0 0 0 0 0 0 0 0 0 0 0 0 0 0 0 0 0 0 0 0 0
0 0 0 0 0 0 0 0 0 0 0 0 0 0 0 0 0 0 0 0 0 0 0 0 0 0 0 0 0 0 0 0 0 0 0 0 0 0 0 0 0 0 0
0 0 0 0 0 0 0 0 0 0 0 0 0 0 0 0 0 0 0 0 0 0 0 0 0 0 0 0 0 0 0 0 0 0 0 0 0 3 0 0 0 0 0
0 0 0 0 0 0 0 0 0 0 0 0 0 0 0 0 0 0 0 0 0 0 0 0 0 0 0 0 0 0 0 0 0 0 0 0 0 0 0 0 0 0 0
0 0 0 0 0 0 0 0 0 0 0 0 0 0 0 0 0 0 0 0 0 0 0 0 0 0 0 0 0 0 0 0 0 0 0 0 0 0 0 0 0 0 0
0 0 0 0 0 0 0 0 0 0 0 0 0 0 0 0 0 0 0 0 0 0 0 0 0 0 0 0 0 0 0 0 0 0 0 0 0 0 0 0 0 0 0
0 0 0 0 0 0 0 0 0 0 0 0 0 0 0 0 0 0 0 0 0 0 0 0 0 0 0 0 0 0 0 0 0 0 0 0 0 0 0 0 0 0 0
0 0 0 0 0 0 0 0 0 0 0 0 0 0 0 0 0 0 0 0 0 0 0 0 0 0 0 0 0 0 0 0 0 0 0 0 0 0 0 0 0 0 0
0 0 0 0 0 0 0 0 0 0 0 0 0 0 0 0 0 0 0 0 0 0 0 0 0 0 0 0 0 0 0 0 0 0 0 0 0 0 0 0 0 0 0
0 0 0 0 0 0 0 0 0 0 0 0 0 0 0 0 0 0 0 0 0 0 0 0 0 0 0 0 0 0 0 0 0 0 0 0 0 0 0 0 0 0 0
0 0 0 0 0 0 0 0 0 0 0 0 0 0 0 0 0 0 0 0 0 0 0 0 0 0 0 0 0 0 0 0 0 0 0 0 0 0 0 0 0 0 0
0 0 0 0 0 0 0 0 0 0 0 0 0 0 0 0 0 0 0 0 0 0 0 0 0 0 0 0 0 0 0 0 0 0 0 0 0 0 0 0 0 0 0
0 0 0 0 0 0 0 0 0 0 0 0 0 0 0 0 0 0 0 0 0 0 0 0 0 0 0 0 0 0 0 0 0 0 0 0 0 0 0 0 0 0 0
0 0 0 0 0 0 0 0 0 0 0 0 0 0 0 0 0 0 0 0 0 0 0 0 0 0 0 0 0 0 0 0 0 0 0 0 0 0 0 0 0 0 0
0 0 0 0 0 0 0 0 0 0 0 0 0 0 0 0 0 0 0 0 0 0 0 0 0 0 0 0 0 0 0 0 0 0 0 0 0 0 0 0 0 0 0
0 0 0 0 0 0 0 0 0 0 0 0 0 0 0 0 0 0 0 0 0 0 0 0 0 0 0 0 0 0 0 0 0 0 0 0 0 0 0 0 0 0 0
0 0 0 0 0 0 0 0 0 0 0 0 0 0 0 0 0 0 0 0 0 0 0 0 0 0 0 0 0 0 0 0 0 0 0 0 0 0 0 0 0 0 0
Height
5813 5815 5818 5820 5822 5824 5826 5828 5830 5832 5833 5835 5836 5838 5839 5840 5840 5841 5841 5842 5842 5842 5842 5842 5841 5841 5841 5840 5839 5838 5837 5836 5834 5833 5831 5829 5828 5826 5824 5822 5820 5818 5816
5804 5807 5810 5812 5815 5817 5819 5821 5823 5825 5826 5828 5830 5831 5832 5833 5834 5835 5836 5836 5836 5836 5836 5836 5836 5836 5835 5834 5833 5832 5831 5830 5829 5827 5826 5824 5822 5821 5819 5817 5815 5813 5811
5795 5799 5801 5804 5807 5809 5811 5813 5815 5817 5819 5821 5823 5824 5826 5826 5827 5828 5829 5830 5830 5830 5830 5830 5830 5830 5829 5828 5827 5827 5826 5824 5823 5821 5820 5818 5817 5815 5813 5812 5810 5808 5806
5786 5789 5792 5795 5798 5800 5803 5805 5807 5809 5811 5813 5815 5817 5818 5819 5820 5821 5822 5823 5823 5823 5824 5824 5823 5823 5823 5822 5821 5820 5819 5818 5817 5815 5814 5812 5811 5809 5808 5806 5804 5802 5800
5775 5779 5783 5786 5789 5791 5794 5797 5799 5801 5803 5805 5807 5808 5810 5812 5813 5814 5815 5815 5816 5816 5816 5817 5816 5816 5816 5815 5814 5813 5812 5811 5810 5808 5807 5806 5804 5803 5801 5799 5798 5796 5794
5764 5768 5772 5776 5779 5782 5785 5788 5790 5792 5794 5796 5798 5799 5801 5803 5804 5806 5807 5807 5808 5808 5808 5809 5809 5809 5808 5808 5807 5806 5805 5804 5802 5801 5800 5798 5797 5796 5794 5793 5791 5789 5787
5753 5757 5761 5765 5769 5773 5776 5778 5781 5783 5785 5787 5788 5790 5792 5794 5796 5797 5798 5799 5800 5800 5800 5800 5800 5800 5800 5800 5799 5798 5797 5795 5794 5793 5792 5791 5789 5788 5787 5785 5784 5782 5780
5741 5745 5750 5754 5758 5762 5766 5768 5771 5773 5775 5777 5779 5781 5783 5785 5787 5788 5789 5790 5791 5791 5792 5792 5792 5792 5791 5791 5790 5789 5788 5787 5786 5785 5784 5783 5781 5780 5779 5778 5776 5775 5773
5728 5733 5738 5743 5747 5751 5755 5758 5761 5764 5766 5767 5769 5771 5773 5776 5778 5779 5780 5781 5782 5782 5783 5783 5782 5782 5782 5782 5781 5780 5779 5778 5778 5776 5775 5774 5773 5772 5771 5769 5768 5767 5765
5715 5720 5725 5731 5735 5739 5744 5748 5751 5753 5755 5757 5759 5761 5764 5766 5767 5769 5771 5771 5772 5772 5773 5773 5773 5772 5772 5772 5771 5771 5770 5769 5769 5767 5766 5765 5764 5763 5762 5761 5759 5758 5757
5701 5707 5713 5718 5723 5728 5732 5737 5740 5743 5745 5747 5749 5751 5753 5755 5757 5759 5761 5761 5761 5762 5762 5762 5762 5762 5762 5762 5761 5761 5760 5759 5759 5758 5757 5756 5755 5754 5753 5752 5751 5749 5748
5688 5694 5700 5706 5711 5716 5721 5725 5729 5732 5735 5737 5739 5740 5743 5744 5747 5748 5749 5750 5751 5752 5751 5752 5752 5752 5751 5751 5751 5750 5749 5749 5749 5748 5747 5746 5745 5744 5743 5742 5741 5740 5739
5676 5682 5688 5694 5699 5705 5709 5713 5717 5721 5724 5726 5728 5730 5732 5734 5736 5737 5738 5739 5740 5740 5740 5741 5741 5741 5740 5740 5740 5739 5738 5738 5738 5737 5736 5735 5734 5733 5732 5732 5731 5730 5729
5665 5671 5676 5682 5687 5692 5697 5701 5706 5710 5713 5715 5717 5719 5721 5723 5724 5725 5727 5727 5728 5729 5729 5730 5730 5729 5728 5728 5728 5727 5727 5726 5726 5725 5725 5724 5723 5722 5722 5721 5720 5720 5719
5655 5660 5665 5671 5676 5681 5685 5689 5694 5698 5701 5704 5706 5708 5709 5711 5712 5714 5715 5715 5716 5716 5718 5718 5718 5717 5716 5716 5716 5715 5715 5714 5714 5713 5713 5713 5712 5711 5711 5710 5710 5709 5709
5647 5652 5656 5661 5666 5670 5674 5678 5682 5686 5689 5692 5694 5696 5697 5699 5700 5701 5702 5703 5703 5703 5704 5706 5705 5705 5704 5703 5703 5702 5702 5702 5701 5701 5701 5700 5700 5700 5699 5699 5698 5698 5698
5639 5643 5648 5652 5656 5660 5663 5667 5670 5674 5677 5680 5682 5684 5685 5686 5687 5688 5689 5690 5690 5690 5690 5692 5691 5691 5690 5690 5690 5689 5689 5688 5688 5688 5687 5687 5687 5687 5687 5686 5686 5686 5686
5632 5636 5640 5643 5647 5650 5653 5656 5660 5662 5665 5668 5669 5671 5672 5673 5674 5675 5675 5676 5677 5676 5676 5676 5677 5677 5676 5676 5676 5676 5675 5674 5674 5674 5674 5674 5674 5674 5674 5674 5674 5674 5674
5626 5629 5632 5635 5638 5641 5644 5646 5648 5651 5653 5655 5657 5658 5660 5660 5661 5661 5662 5662 5662 5662 5661 5661 5662 5661 5661 5661 5660 5660 5660 5659 5660 5659 5659 5659 5659 5660 5660 5660 5660 5661 5661
5621 5623 5626 5628 5630 5632 5634 5636 5638 5640 5642 5643 5645 5646 5647 5647 5648 5648 5648 5648 5647 5646 5645 5645 5645 5645 5645 5644 5643 5644 5644 5644 5644 5644 5644 5644 5645 5645 5646 5646 5647 5647 5648
5617 5619 5620 5621 5623 5625 5626 5628 5629 5630 5631 5632 5633 5633 5634 5634 5634 5633 5633 5633 5631 5630 5629 5628 5628 5628 5628 5627 5627 5627 5626 5626 5627 5627 5628 5629 5629 5630 5631 5631 5632 5633 5633
5612 5613 5614 5615 5616 5617 5617 5618 5619 5619 5620 5620 5620 5620 5620 5620 5619 5618 5617 5616 5615 5613 5612 5611 5611 5610 5610 5609 5608 5608 5608 5608 5610 5612 5610 5612 5612 5613 5615 5616 5616 5617 5618
5608 5607 5608 5608 5608 5608 5608 5608 5608 5608 5608 5607 5606 5606 5605 5604 5603 5602 5601 5599 5597 5595 5594 5593 5592 5591 5591 5591 5589 5589 5589 5589 5591 5592 5592 5594 5595 5596 5598 5599 5600 5601 5603
5603 5602 5601 5600 5599 5599 5598 5597 5596 5595 5594 5593 5592 5590 5589 5588 5586 5585 5583 5581 5579 5576 5574 5572 5572 5571 5570 5569 5569 5569 5569 5569 5571 5572 5573 5574 5577 5578 5580 5582 5583 5585 5587
5597 5595 5593 5591 5589 5588 5586 5585 5583 5582 5580 5578 5576 5574 5572 5570 5569 5566 5564 5562 5559 5557 5554 5552 5550 5549 5548 5547 5546 5546 5547 5547 5549 5552 5553 5554 5557 5559 5561 5564 5566 5568 5570
5590 5587 5584 5581 5578 5576 5573 5571 5569 5567 5565 5562 5560 5556 5554 5551 5549 5545 5543 5540 5538 5535 5533 5530 5528 5526 5525 5524 5524 5523 5524 5525 5527 5530 5533 5534 5537 5539 5542 5546 5548 5551 5553
Wind_Speed
44 43 43 41 40 40 39 39 38 37 36 35 33 32 32 31 30 29 29 28 28 27 27 26 26 26 26 26 26 27 27 28 28 28 28 28 28 27 27 27 27 26 26
47 45 45 44 43 42 41 41 41 40 39 38 36 35 34 33 32 32 31 31 30 29 29 29 28 28 28 28 29 29 29 30 30 30 30 30 29 29 29 28 28 28 27
48 47 46 45 45 44 44 44 43 43 42 41 39 38 37 36 35 35 34 33 33 32 31 31 30 30 30 31 31 31 31 32 32 32 32 31 30 30 30 29 29 29 29
50 49 48 46 45 46 45 45 45 44 43 43 42 42 41 39 38 36 36 35 35 34 34 33 32 32 33 33 33 33 34 34 34 34 34 33 32 32 31 31 31 30 31
53 52 50 49 48 47 47 47 47 46 45 45 44 44 43 42 40 39 39 38 38 37 36 36 35 35 35 35 35 36 36 36 36 36 35 35 34 33 33 33 32 32 32
55 55 54 52 50 49 48 47 46 46 46 46 46 46 45 45 43 42 41 40 39 39 39 38 38 37 37 37 38 38 38 38 38 38 37 36 36 35 35 35 34 34 33
58 57 57 55 53 51 50 48 47 47 47 47 47 47 46 45 44 42 42 41 41 40 40 40 39 39 40 40 40 39 39 40 39 39 39 38 38 37 37 36 35 35 34
61 60 59 57 55 53 52 50 49 49 47 47 47 47 47 46 45 45 44 43 42 42 41 41 41 41 41 41 41 41 41 41 40 40 40 40 39 38 37 36 36 36 35
62 61 60 58 56 55 54 52 51 50 49 48 48 47 46 45 45 46 45 44 43 42 41 42 43 43 43 42 42 42 42 42 42 41 40 40 39 39 38 38 37 37 36
61 61 61 60 58 56 55 53 52 51 50 48 48 48 47 47 46 45 44 44 44 43 43 44 44 44 44 44 44 43 43 43 42 42 42 41 41 41 40 39 39 39 38
60 60 60 60 60 58 56 54 53 53 51 50 49 48 47 47 46 47 46 46 46 46 46 46 46 45 45 44 44 44 44 44 44 44 43 43 43 43 42 40 40 40 39
59 59 59 59 60 59 57 55 55 54 51 50 50 49 50 50 49 49 48 47 48 48 48 47 46 46 46 45 45 45 46 46 45 45 45 45 44 43 42 41 40 40 39
56 57 58 58 59 60 59 58 58 56 52 51 51 50 50 50 51 51 50 50 50 50 49 48 47 47 46 47 47 48 47 47 47 47 46 46 45 43 42 41 40 39 38
53 55 56 57 57 59 60 59 58 56 54 52 51 52 52 51 51 51 52 51 51 50 49 49 49 49 48 49 49 49 48 48 48 47 47 46 44 43 42 40 39 39 39
49 51 53 54 54 56 57 58 58 56 56 54 53 53 53 54 52 52 52 52 51 51 50 49 49 50 51 52 51 50 50 49 49 48 47 47 46 45 43 42 41 40 40
45 46 48 50 51 52 55 57 58 56 55 55 54 54 54 54 54 53 53 53 53 53 53 52 52 52 52 53 53 52 51 50 50 49 49 47 47 47 46 45 43 42 41
41 43 44 46 48 49 51 54 55 56 55 53 53 53 55 54 54 53 53 55 55 55 57 56 55 53 53 53 54 53 52 52 51 50 49 49 48 47 47 46 45 43 42
36 39 41 43 45 46 48 50 52 53 54 52 51 51 52 52 52 52 54 56 57 58 59 58 57 56 56 56 56 56 55 54 53 52 51 51 50 49 48 47 45 44 43
31 34 37 39 41 44 45 47 48 50 51 51 50 50 51 52 53 54 56 57 58 59 60 59 58 57 58 58 58 58 56 55 54 53 52 51 51 50 48 47 46 45 45
25 28 32 35 37 39 42 44 45 46 47 48 49 51 52 54 55 55 56 57 58 57 58 59 59 59 59 59 59 58 56 55 55 54 53 52 51 50 49 48 47 47 47
23 25 28 31 33 36 38 40 41 43 46 47 49 51 53 54 55 56 57 58 58 59 60 60 60 60 60 60 60 59 58 58 57 56 56 54 53 53 52 51 50 50 49
19 22 25 29 31 34 36 38 41 43 46 48 50 51 52 53 55 55 56 58 59 60 61 61 62 62 62 62 62 62 62 61 60 58 58 57 57 56 55 53 52 51 50
18 20 23 27 29 32 34 37 39 42 45 48 49 51 53 54 55 57 58 60 60 61 62 63 64 63 64 64 64 64 64 64 62 61 61 60 59 59 58 56 54 52 52
20 23 26 29 32 35 37 39 41 43 45 47 50 52 54 56 58 59 61 62 62 63 65 66 67 66 66 66 66 66 65 65 65 64 63 63 61 60 59 58 56 54 52
23 26 29 32 35 37 39 41 43 45 47 49 51 54 56 58 60 62 64 65 66 67 67 68 69 69 68 68 69 69 69 68 67 66 65 64 61 60 59 57 56 55 54
27 29 32 34 36 39 41 43 46 48 50 52 54 55 58 60 62 64 65 66 67 67 67 67 68 69 68 69 69 69 69 69 68 66 65 64 63 62 61 59 57 56 54
Wind_Direction
247 247 247 248 248 249 249 249 249 250 250 251 251 251 251 252 254 255 256 258 259 260 263 265 268 271 274 277 280 283 286 288 292 294 296 298 299 299 299 300 303 304 303
245 247 247 247 248 248 248 249 250 250 250 251 252 252 252 253 254 255 257 258 259 261 263 265 267 270 273 276 279 282 285 288 290 293 295 296 297 298 299 299 300 301 302
243 244 246 246 247 248 248 249 250 250 251 252 253 253 253 253 254 255 257 258 260 262 263 265 268 269 272 275 278 280 283 286 289 291 293 294 296 297 298 298 299 299 299
242 243 244 245 246 248 249 249 250 250 252 252 253 254 254 255 255 256 257 258 260 262 263 265 267 269 272 275 278 280 282 285 288 290 292 292 293 294 295 295 296 296 297
242 242 243 244 245 247 249 250 250 251 252 253 254 254 254 255 256 257 258 260 261 263 264 265 267 269 272 274 276 279 281 283 286 288 289 290 291 292 293 293 294 294 295
242 242 241 243 245 246 248 250 250 252 253 254 254 254 255 255 256 257 259 260 262 263 264 265 267 269 271 273 275 278 279 281 284 286 287 288 290 291 290 291 292 292 293
241 241 241 241 243 244 245 247 249 251 253 254 255 255 256 255 257 258 259 261 262 263 265 266 267 268 271 273 274 276 279 280 282 285 286 286 288 290 290 290 290 291 291
241 240 240 241 242 243 243 245 248 250 251 253 255 256 256 257 258 259 260 261 262 264 265 266 268 269 271 272 273 275 277 279 281 283 285 286 287 288 289 289 289 290 290
240 240 240 240 241 241 243 244 247 250 251 252 254 256 257 258 260 260 260 261 263 264 266 267 268 269 271 272 274 275 276 277 279 282 284 286 287 287 287 288 288 288 289
240 239 239 239 239 240 241 244 246 248 250 252 253 255 257 258 259 259 259 261 262 264 266 268 270 270 271 271 272 273 275 277 278 280 282 284 285 285 285 286 287 288 289
239 239 240 239 239 240 241 243 245 247 249 251 252 254 256 258 260 260 261 262 264 265 266 268 270 271 271 272 273 274 276 276 276 278 280 282 284 284 284 284 286 286 287
238 238 239 239 239 239 241 243 244 246 248 250 251 253 256 258 260 262 263 264 266 266 266 268 269 271 272 272 273 274 275 276 276 277 279 280 281 282 282 282 284 285 286
238 238 239 239 239 240 241 242 244 245 247 249 252 255 257 258 259 260 263 265 267 268 267 267 269 270 271 273 274 274 274 275 276 277 279 280 280 280 280 280 281 282 283
238 238 238 239 240 240 241 243 244 246 248 249 252 254 256 258 260 261 262 264 267 268 267 267 268 269 271 273 274 274 274 274 275 276 277 278 278 278 278 279 280 281 283
237 237 238 240 241 241 241 243 244 246 248 250 252 254 256 258 260 261 262 264 266 267 267 269 270 270 270 272 273 274 275 276 276 276 276 277 277 276 276 277 279 281 283
238 238 240 240 242 243 243 244 245 247 250 253 254 255 256 259 260 261 262 263 265 266 267 269 270 271 271 271 273 273 274 274 275 276 276 277 277 276 275 276 278 280 280
240 240 241 243 245 247 247 247 248 249 251 253 255 257 257 258 259 260 262 263 265 267 268 269 270 270 270 272 272 273 273 274 275 275 275 275 276 276 275 275 276 277 279
242 242 242 244 245 247 248 249 250 252 253 254 256 258 258 258 260 261 262 263 264 266 269 269 269 270 269 270 271 272 272 274 275 275 274 275 276 275 275 275 276 277 278
243 242 242 244 246 248 250 251 253 253 253 254 256 258 258 258 260 261 263 264 265 268 269 269 269 269 269 270 271 272 273 273 273 273 273 274 274 274 275 275 276 276 276
247 247 246 247 249 251 252 253 253 252 254 255 257 259 260 260 261 263 264 264 267 268 270 270 269 269 270 271 272 272 272 272 272 272 272 273 273 274 274 274 274 274 274
252 253 252 251 251 252 254 254 254 255 258 259 259 261 261 261 262 264 265 266 268 270 271 271 271 271 272 272 272 272 271 270 271 271 271 272 272 273 272 272 273 273 273
258 257 256 254 254 255 255 256 257 258 260 260 260 261 262 264 265 265 267 268 270 271 272 272 272 272 272 271 271 271 270 269 270 271 271 271 271 271 270 270 271 270 270
274 269 265 264 263 262 262 262 263 263 263 264 265 265 266 267 268 270 271 271 272 273 273 273 273 273 273 271 271 271 270 270 271 270 270 269 269 270 269 269 269 269 269
285 281 276 273 271 269 267 267 268 268 268 269 270 270 270 271 271 272 272 273 273 274 274 274 274 273 272 271 271 270 270 269 269 269 270 269 267 268 268 268 267 267 267
289 287 283 279 277 276 274 273 272 272 272 272 273 273 273 274 274 274 274 274 275 275 274 274 273 273 271 271 270 269 268 268 268 269 268 267 266 266 266 266 266 265 264
295 293 290 287 283 281 279 279 278 277 276 276 276 276 276 276 276 277 277 277 277 276 275 275 273 272 271 271 270 269 268 268 268 268 267 266 267 266 265 264 263 263 262